Wetbulb
43.77 44.06 43.72 43.42 43.81 44.43 44.96 46.71 47.69 49.41 52.65 55.36 59.44 64.51 66.20 68.02 66.95 66.62 66.39 66.46 66.70 65.59 65.10 64.44 63.43 63.53 63.22 62.61 62.57 60.95 61.56 60.00
43.37 44.24 43.69 43.23 43.32 43.64 44.15 44.67 46.54 48.01 49.28 51.85 55.32 60.19 60.64 65.36 66.86 66.61 66.13 66.21 66.46 66.21 65.43 64.66 63.54 63.42 63.29 62.48 62.18 61.05 59.96 59.76
41.88 43.04 43.28 42.61 42.49 42.57 43.56 43.86 45.08 46.69 48.02 51.17 53.02 55.72 60.89 56.99 57.11 58.76 60.87 65.18 66.58 66.83 66.20 65.46 64.31 63.49 62.97 61.92 61.56 59.93 60.38 59.63
39.97 41.47 41.99 42.35 42.05 41.31 42.87 43.48 44.18 45.89 47.26 49.61 50.39 52.83 54.79 54.43 54.64 55.65 57.22 57.24 57.40 58.94 63.58 66.17 65.79 63.88 63.41 62.52 61.63 61.24 60.75 58.56
40.00 40.34 41.23 41.28 41.61 41.75 42.42 43.13 43.74 45.36 46.21 46.77 47.06 47.25 46.66 50.87 53.30 54.58 54.98 55.20 55.40 55.51 59.12 59.52 60.57 65.43 64.33 63.93 63.01 62.40 61.72 60.79
38.75 39.05 40.04 40.95 40.70 40.14 40.88 42.45 43.71 44.14 44.81 45.75 45.69 45.51 47.32 49.09 49.38 49.80 51.25 53.73 53.72 54.56 55.13 57.05 56.64 58.91 60.02 64.52 64.26 62.43 62.86 61.57
39.24 39.35 40.16 39.88 40.18 40.81 40.93 41.56 42.91 43.86 44.04 44.68 44.72 44.30 44.98 44.91 46.08 46.91 48.53 49.94 50.42 51.71 54.09 54.94 54.88 54.88 55.51 57.55 59.55 63.92 63.07 62.57
37.93 37.94 38.60 39.51 39.77 40.35 41.59 41.65 41.90 43.55 43.50 43.79 44.44 43.98 44.42 44.06 44.00 45.18 45.42 47.11 47.73 48.60 50.93 52.67 52.47 52.83 53.64 54.87 57.19 57.15 58.59 58.61
38.04 38.41 38.49 38.79 39.99 40.36 40.25 40.97 41.24 41.47 43.00 43.23 44.12 44.75 44.26 44.38 43.31 43.60 43.98 44.71 47.02 48.22 48.86 49.93 51.60 51.30 51.95 52.59 54.29 52.85 53.89 56.45
37.61 38.97 38.88 39.19 39.85 40.62 40.35 40.57 40.68 40.79 41.77 42.51 42.46 42.98 42.75 42.75 43.35 42.65 43.03 43.30 44.90 46.06 47.13 48.05 49.57 49.62 49.78 50.41 50.86 50.20 51.41 52.23
38.05 38.56 39.56 39.50 38.93 40.38 40.93 40.36 39.65 39.83 41.03 41.04 40.88 40.73 41.30 41.83 43.03 41.38 41.50 42.23 42.92 44.18 44.28 45.30 46.66 47.97 46.92 46.93 47.15 48.01 47.73 49.71
37.21 38.13 39.38 39.41 39.19 39.49 39.13 38.41 38.31 39.18 39.40 39.32 39.03 39.08 39.49 39.62 39.96 39.77 39.78 40.65 40.48 41.21 41.65 42.98 43.56 45.82 42.69 42.55 42.98 43.60 43.98 45.59
37.98 38.78 39.16 39.32 38.76 37.27 36.80 37.07 37.85 38.53 38.48 38.20 37.56 37.83 38.21 38.16 38.16 38.67 38.80 38.59 38.54 38.92 39.34 40.34 40.48 42.96 40.29 39.85 40.10 40.72 40.76 41.97
36.65 36.77 35.58 35.58 35.71 36.20 35.97 36.89 37.17 37.71 37.45 36.90 36.72 36.72 36.91 36.65 37.02 37.75 37.79 37.22 36.53 36.98 37.25 37.87 38.18 39.83 37.69 38.17 38.45 38.42 39.11 40.89
33.61 33.04 33.55 35.05 35.75 35.73 35.93 36.70 36.85 36.97 36.92 36.11 35.62 35.87 36.29 36.37 36.71 36.41 36.44 36.60 35.36 35.39 36.19 36.84 37.16 37.89 36.85 36.60 36.91 36.67 37.35 38.62
33.67 33.31 33.83 34.75 34.72 35.42 36.00 36.35 36.61 36.45 36.03 35.69 35.49 36.12 36.55 36.33 35.70 35.23 34.96 34.65 34.56 34.63 34.92 35.39 35.81 36.60 35.77 35.30 35.79 35.41 35.45 35.85
34.38 35.00 35.42 35.35 35.40 35.15 35.67 35.48 35.97 36.22 35.51 35.45 36.05 35.97 36.09 34.84 33.84 33.44 33.00 32.88 32.87 33.19 33.16 34.65 34.96 35.55 35.55 35.58 35.12 34.16 34.63 34.24
34.50 35.08 35.39 35.23 35.09 35.39 34.68 35.20 36.03 35.62 35.23 35.63 35.87 35.94 35.52 33.83 33.35 32.64 31.62 31.25 31.38 31.37 33.21 34.20 33.96 34.60 35.27 35.67 35.12 34.33 33.28 33.31
34.85 35.02 35.05 34.93 34.92 35.02 35.30 35.30 35.08 34.73 34.50 34.46 34.87 34.62 34.51 30.87 31.63 32.36 32.08 32.12 32.02 32.98 33.32 33.71 33.46 34.01 34.85 34.98 34.68 34.17 32.80 33.07
MSLP
1026.14 1025.65 1025.02 1024.43 1023.86 1023.42 1022.76 1021.92 1021.14 1020.26 1019.32 1018.19 1016.96 1016.10 1015.70 1015.48 1015.44 1015.47 1015.64 1015.75 1016.00 1016.36 1016.38 1016.35 1016.41 1016.62 1016.77 1017.01 1017.13 1017.29 1017.35 1017.59
1026.32 1026.01 1025.48 1024.85 1024.21 1023.50 1022.98 1022.42 1021.82 1020.97 1020.06 1019.17 1018.10 1017.13 1016.75 1015.70 1015.23 1015.01 1015.05 1015.07 1015.19 1015.34 1015.56 1015.69 1016.00 1016.21 1016.26 1016.52 1016.84 1017.06 1017.08 1017.15
1026.84 1026.43 1026.12 1025.70 1025.08 1024.35 1023.69 1023.16 1022.66 1022.12 1021.46 1020.59 1019.71 1018.50 1017.45 1017.39 1017.19 1016.46 1016.17 1015.27 1015.01 1014.91 1015.03 1015.11 1015.30 1015.62 1015.65 1015.82 1016.07 1016.38 1016.28 1016.36
1027.33 1026.97 1026.56 1026.04 1025.64 1025.18 1024.39 1023.84 1023.35 1022.78 1022.23 1021.43 1020.39 1019.23 1018.56 1018.00 1017.71 1017.42 1016.98 1016.79 1016.02 1015.97 1015.17 1014.61 1014.77 1014.97 1015.04 1015.22 1015.23 1015.16 1015.22 1015.26
1027.33 1027.25 1026.98 1026.66 1026.19 1025.55 1025.00 1024.39 1023.82 1023.35 1022.71 1022.26 1021.81 1021.46 1020.91 1020.34 1019.46 1018.77 1018.03 1017.17 1017.13 1016.43 1015.92 1015.46 1015.29 1014.56 1014.25 1014.28 1014.46 1014.51 1014.49 1014.16
1027.78 1027.56 1027.38 1026.97 1026.58 1026.19 1025.56 1025.10 1024.54 1024.01 1023.40 1022.93 1022.78 1022.57 1022.31 1021.62 1020.72 1019.83 1018.97 1017.81 1018.32 1016.95 1017.04 1016.21 1015.52 1015.32 1015.23 1014.08 1013.64 1013.55 1013.52 1013.53
1027.88 1027.78 1027.61 1027.14 1026.70 1026.29 1025.92 1025.44 1024.99 1024.71 1024.33 1023.89 1023.32 1023.16 1022.95 1022.37 1021.71 1020.84 1020.05 1018.95 1019.54 1018.26 1017.79 1016.12 1016.72 1015.45 1016.12 1015.57 1014.32 1013.05 1012.85 1013.09
1027.97 1027.99 1027.77 1027.46 1027.21 1026.89 1026.37 1025.91 1025.42 1025.09 1024.79 1024.59 1024.23 1023.67 1023.31 1023.20 1022.74 1021.97 1021.26 1020.47 1019.39 1019.29 1019.27 1017.24 1017.57 1016.60 1016.09 1016.17 1016.24 1015.45 1013.92 1012.81
1027.90 1027.70 1027.56 1027.60 1027.43 1027.11 1026.80 1026.41 1025.99 1025.59 1025.28 1025.08 1024.70 1024.45 1024.03 1023.78 1023.52 1022.92 1022.26 1021.63 1020.80 1019.90 1019.00 1018.52 1018.02 1017.86 1016.89 1015.77 1015.58 1015.14 1014.54 1014.61
1027.43 1027.37 1027.40 1027.40 1027.25 1027.11 1027.04 1026.71 1026.34 1026.08 1025.82 1025.49 1025.20 1024.93 1024.70 1024.58 1024.05 1023.56 1023.15 1022.54 1021.65 1020.90 1019.96 1018.95 1018.62 1018.01 1018.49 1018.00 1017.04 1016.92 1016.23 1015.43
1026.95 1027.08 1027.12 1027.22 1027.31 1027.25 1026.98 1026.81 1026.78 1026.61 1026.37 1026.08 1025.83 1025.51 1025.27 1025.05 1024.65 1024.13 1023.74 1023.12 1022.27 1021.54 1020.76 1020.10 1019.51 1019.49 1019.40 1018.80 1017.24 1017.87 1017.78 1016.11
1026.60 1026.74 1026.89 1027.02 1027.32 1027.30 1027.25 1027.16 1027.18 1027.01 1026.83 1026.56 1026.26 1026.05 1025.88 1025.57 1025.30 1024.94 1024.50 1023.93 1023.14 1022.51 1021.81 1020.88 1019.87 1019.43 1018.91 1018.31 1018.09 1018.05 1017.26 1015.83
1026.23 1026.49 1026.76 1026.97 1027.20 1027.28 1027.45 1027.49 1027.38 1027.33 1027.16 1026.87 1026.60 1026.41 1026.23 1026.01 1025.81 1025.44 1024.94 1024.36 1023.71 1023.26 1022.57 1021.61 1020.62 1020.16 1019.66 1019.08 1018.72 1018.05 1017.11 1016.08
1026.19 1026.49 1026.84 1027.15 1027.34 1027.44 1027.58 1027.59 1027.54 1027.46 1027.33 1027.14 1026.92 1026.76 1026.61 1026.44 1026.23 1025.84 1025.30 1024.78 1024.23 1023.61 1022.90 1022.07 1021.45 1020.99 1020.76 1020.30 1019.86 1018.95 1018.04 1017.02
1026.33 1026.70 1026.99 1027.25 1027.46 1027.56 1027.65 1027.70 1027.66 1027.61 1027.48 1027.38 1027.28 1027.10 1026.97 1026.82 1026.65 1026.27 1025.78 1025.13 1024.60 1023.94 1023.30 1022.62 1022.10 1021.49 1021.24 1020.78 1020.12 1019.47 1018.66 1017.84
1026.29 1026.69 1026.93 1027.19 1027.48 1027.58 1027.66 1027.76 1027.74 1027.69 1027.64 1027.56 1027.43 1027.16 1026.99 1026.85 1026.70 1026.35 1025.89 1025.32 1024.72 1024.11 1023.46 1022.89 1022.36 1021.84 1021.56 1021.01 1020.38 1019.80 1019.13 1018.49
1026.00 1026.33 1026.64 1026.94 1027.20 1027.46 1027.60 1027.73 1027.71 1027.57 1027.52 1027.42 1027.17 1026.95 1026.82 1026.71 1026.55 1026.24 1025.87 1025.42 1024.92 1024.27 1023.57 1022.92 1022.38 1021.98 1021.60 1021.09 1020.48 1019.80 1019.30 1018.65
1025.66 1026.10 1026.38 1026.68 1026.92 1027.15 1027.39 1027.53 1027.52 1027.48 1027.50 1027.39 1027.18 1026.96 1026.75 1026.55 1026.33 1026.05 1025.74 1025.27 1024.72 1024.14 1023.44 1022.86 1022.30 1021.82 1021.33 1020.80 1020.34 1019.75 1019.17 1018.61
1025.35 1025.91 1026.31 1026.59 1026.88 1027.13 1027.36 1027.47 1027.51 1027.62 1027.67 1027.49 1027.25 1027.04 1026.86 1026.61 1026.38 1026.03 1025.58 1025.01 1024.49 1023.92 1023.37 1022.87 1022.26 1021.86 1021.21 1020.77 1020.23 1019.67 1019.20 1018.67
Wind_Speed
11 12 11 12 13 12 13 13 18 18 13 12 8 5 4 5 6 6 7 7 9 8 8 8 6 6 6 5 8 5 6 5
10 10 11 13 14 16 17 17 18 15 14 13 10 7 9 4 3 5 7 9 10 10 9 9 7 9 9 8 5 7 5 4
9 10 11 11 13 13 15 16 16 14 12 11 8 9 5 6 7 11 16 9 7 8 10 10 9 8 9 8 9 5 6 7
8 9 9 10 12 11 13 13 14 14 16 11 12 8 7 7 10 9 11 13 14 15 11 8 9 7 9 10 10 13 10 6
8 8 10 9 9 9 10 11 12 12 14 13 16 11 11 10 9 7 8 13 13 14 11 11 13 7 9 9 9 12 11 11
8 8 8 7 8 8 7 9 11 12 12 12 10 12 9 8 10 13 11 10 12 14 13 12 13 11 15 10 11 11 10 10
6 5 6 7 7 8 8 9 8 11 10 11 11 12 12 11 13 11 9 9 7 11 12 11 10 11 12 12 15 9 6 7
5 6 6 7 9 9 8 11 10 8 8 11 11 11 10 12 11 10 12 9 9 11 10 11 9 11 11 13 13 12 11 5
6 6 3 4 6 7 8 9 9 8 7 8 9 11 7 7 10 9 9 9 9 12 11 10 10 9 9 11 8 11 14 8
7 6 4 4 5 7 7 7 7 7 7 6 8 9 10 9 10 9 8 10 10 12 11 10 10 11 10 8 4 7 5 9
6 5 5 3 2 5 7 7 6 5 7 7 6 7 8 8 9 12 12 11 12 13 13 11 10 8 8 8 8 6 7 4
3 0 2 1 2 4 5 7 6 6 6 6 6 7 7 7 8 8 9 9 11 11 12 11 11 9 12 12 12 11 10 9
3 3 3 4 4 5 6 5 6 5 5 6 6 6 7 7 7 8 8 10 10 9 9 10 11 11 12 13 13 13 14 14
5 6 5 5 5 5 4 5 5 5 5 6 7 7 7 7 7 7 7 8 9 9 9 9 10 9 10 10 10 12 13 13
6 5 4 5 4 4 4 5 5 5 5 5 5 6 5 5 5 6 6 7 8 9 8 8 8 8 9 10 10 10 10 11
6 5 5 4 4 4 5 4 4 2 3 4 4 5 5 5 5 5 6 7 8 8 7 6 6 8 9 12 10 10 11 11
7 6 6 5 4 4 4 3 3 3 4 5 5 4 4 4 4 6 7 6 7 7 7 10 11 8 16 18 17 13 10 11
8 7 6 5 4 4 4 4 3 5 5 6 6 6 6 6 6 9 9 8 6 6 8 12 12 12 15 16 16 12 8 10
7 6 6 5 4 3 3 3 5 5 5 5 5 6 5 5 6 11 10 9 9 12 12 12 10 10 17 15 15 12 9 9
Wind_Direction
3 5 3 0 5 9 7 3 360 357 352 342 337 314 255 224 216 218 220 217 220 219 238 238 203 213 214 204 216 202 217 216
350 3 4 5 14 9 10 9 3 4 359 352 341 343 327 290 256 245 222 216 219 217 230 237 217 222 228 213 213 219 231 181
355 351 1 13 5 7 12 9 7 9 2 352 341 319 357 13 0 18 12 328 267 238 238 241 223 226 224 205 201 211 226 179
356 356 355 357 9 356 2 11 12 13 9 4 5 358 348 0 10 12 12 11 28 13 343 274 244 215 234 229 217 213 230 210
2 3 4 358 352 354 358 354 13 18 17 17 16 11 8 353 348 359 2 32 12 20 3 9 355 283 227 232 228 236 236 234
357 356 355 337 352 343 344 355 12 10 16 28 22 16 3 353 0 1 359 19 7 23 5 7 19 8 348 294 238 214 225 233
344 349 359 347 346 3 355 1 16 14 11 12 25 20 3 5 360 2 359 14 343 3 1 28 0 33 360 347 332 284 219 238
311 333 357 347 352 354 354 6 5 6 17 15 9 18 16 8 0 359 355 355 9 360 342 12 11 21 12 357 333 326 330 44
262 274 303 326 343 350 353 357 356 355 6 18 21 12 15 14 3 359 355 351 346 346 352 3 5 11 7 360 12 357 12 336
249 256 266 302 334 345 348 351 359 2 8 6 16 20 15 360 1 4 357 350 347 344 348 358 355 25 2 352 1 9 344 347
258 240 246 258 351 330 352 4 12 6 21 16 19 15 16 8 2 3 356 349 351 347 352 353 3 14 7 5 13 350 327 345
255 229 234 299 12 20 23 31 31 33 22 9 18 16 10 6 7 1 354 347 352 347 346 346 359 11 7 5 359 346 343 349
128 81 69 62 67 65 55 40 52 33 15 17 18 13 8 7 358 352 346 348 348 345 343 348 359 4 8 3 353 347 343 344
102 91 76 82 90 77 63 56 45 32 26 21 14 9 4 356 347 344 337 338 339 340 347 356 354 352 10 360 349 342 339 338
133 116 111 111 90 82 85 73 41 26 21 19 10 359 348 340 339 337 327 325 333 338 343 346 352 339 6 352 348 343 338 339
167 159 149 129 101 80 81 75 55 33 22 9 345 334 336 344 356 340 335 337 339 329 330 333 345 355 0 348 346 345 340 335
176 166 157 139 121 112 102 79 54 47 22 356 339 348 353 5 359 359 356 339 332 330 329 355 357 351 347 347 347 339 329 330
174 178 167 153 138 123 93 63 31 27 12 349 343 344 352 351 354 2 356 342 324 330 342 353 351 342 342 338 339 334 320 316
176 171 164 160 148 113 114 51 31 18 4 351 356 355 337 334 347 354 346 340 342 348 345 342 338 332 338 337 328 327 313 302